Showing default

SIGI, 62632

Orbit data source: Space-Track

SIGI, 62632 is a German payload satellite in SSO that was launched on Tue, 14 Jan 2025 UTC via an FALCON 9 launch vehicle from the Air Force Western Test Range (AFWTR). Payload-class satellites include a variety of spacecraft equipped with specific instruments for various scientific and technological missions. These include communications satellites like Starlink; space stations such as the ISS; scientific satellites like the Hubble; Earth observation satellites from companies like Planet Labs, Umbra, and HawkEye 360; GPS; miniature CubeSats for education and research; and military/defense satellites.

Loading next visibility...
Identifier
62632, 2025-009Z
Orbit
SSO
Last TLE update
8 hours ago
Origin
Manufacturer
REFLEX
Mission
Operational Commercial Communications
Bus & Motor
OMNIFLEX, Unknown motor
Mass
109 kg wet, 109 kg dry
Launch date (UTC)
2025-01-14 (6 months ago)
Launch vehicle
FALCON 9
Launch site
Air Force Western Test Range (AFWTR)
Object type
Payload
Rocket body
Debris
Shape & HBR
Box + 2 Pan, 3 m
Radar Cross Section
1.176 m², Medium (>0.1 m² and < 1m²)

Expand to show TLE details & history

TLE from 8 hours ago
0 SIGI
1 62632U 25009Z   25182.90726141  .00004026  00000-0  19013-3 0  9992
2 62632  97.4305 262.8838 0005225  99.0688 261.1138 15.19986459 25512
Epoch: 2025-07-01T21:46Z
TLE epoch observation values (Epoch: 2025-07-01T21:46:27.385Z)
Latitude
-0.00009°
Longitude
16.07373°
Altitude
509.529 km
Speed
7.609 km/s
True Right ascension
17h 31m 32s
True Declination
0° 00' 00"
Sunlit
Object was in full shadow at epoch
Visualization orbit readout
Latitude
-19.41893°
Longitude
19.01503°
Altitude
515.083 km
Speed
7.604 km/s
Apparent Right ascension
18h 59m 11s
Apparent Declination
-74° 44' 57"
Sunlit
Object is in full shadow
Visualization observer readout
Local Sidereal Time
17:16:54
Azimuth
172.748° S
Elevation
-25.917°
Doppler factor
1
Orbital elements
Apogee altitude
506.444 km
Perigee altitude
499.253 km
Semi-major axis
6,880.985 km
Eccentricity
0.00052
Inclination
97.4305°
RAAN
262.8838°
Arg. of periapsis
99.0688°
True anomaly
Unknown
Mean anomaly
261.1138°
Eccentric anomaly
Unknown
Mean motion
3.80248 °/min
Orbital period
94.67 mins
BSTAR
0.00019013
Loading maneuver chart data...
Loading SW <> Apogee altitude chart data...
Loading historical data...
Loading historical data...
Loading historical data...
Loading historical data...
Loading historical data...
Loading historical data...
Loading historical data...

SIGI Visibility forecast

Observer location: undefined°, undefined°

Span
Click to sort rows by Start time (UTC) header in descending order
Start Az.
Max El. time (UTC)
Max El. Az.
Max El.
End time (UTC)
End Az.
5 mins2025-07-02 05:48:18.942Z196.918° SSW2025-07-02 05:50:18.942Z239.553° WSW31.855°2025-07-02 05:53:18.942Z326.074° NNW
4 mins2025-07-02 18:53:18.942Z330.952° NNW2025-07-02 18:55:18.942Z280.014° WNW24.396°2025-07-02 18:57:18.942Z238.252° WSW
5 mins2025-07-03 05:30:18.942Z175.307° S2025-07-03 05:33:18.942Z308.211° NW42.145°2025-07-03 05:35:18.942Z341.112° N
|